COSMOS 1275 DEB, 12726

Orbit data source: Space-Track

COSMOS 1275 DEB, 12726 is space debris in LEO originally from a launch on Thu, 04 Jun 1981 UTC launched from the Plesetsk Missile And Space Complex (PKMTR). Debris objects in space refer to the collection of defunct objects orbiting the Earth. Examples of debris include non-operational satellites, rocket bodies, and fragments generated from explosions, collisions, or faulty payload assembly.

Loading next visibility...
Identifier
12726, 1981-053BT
Orbit
LEO
Country
Flag of CISCIS
Related business
Manufacturer
Unknown
Mission
Spacecraft
Bus & Motor
Unknown
Mass
Unknown
Launch date (UTC)
1981-06-04 (45 years ago)
Launch vehicle
Unknown
Launch site
Plesetsk Missile And Space Complex (PKMTR)
Object type
Payload
Rocket body
Debris
Shape & HBR
Unknown shape, 0.3 m
Radar Cross Section
Medium (>0.1 m² and <1 m²)

Expand to show TLE details & history
Last TLE update: 13 hours ago

TLE from 13 hours ago
0 COSMOS 1275 DEB
1 12726U 81053BT  26145.48909936  .00000958  00000-0  58713-3 0  9990
2 12726  82.9443 338.8300 0040336 182.5210 196.1189 14.04414356271782
Epoch: 2026-05-25T11:44Z
TLE epoch observation values (Epoch: 2026-05-25T11:44:18.184Z)
Latitude
18.36058°
Longitude
-77.97996°
Altitude
909.09 km
Speed
7.385 km/s
True Right ascension
22h 44m 41s
True Declination
18° 15' 37"
Sunlit
Object was in daylight at epoch
Visualization orbit readout
Latitude
Unknown
Longitude
Unknown
Altitude
Unknown
Speed
Unknown
Apparent Right ascension
Unknown
Apparent Declination
Unknown
Sunlit
N/A
Visualization observer readout
Local Sidereal Time
10:19:17
Azimuth
Unknown
Elevation
Unknown
Doppler factor
Unknown
Orbital elements
Apogee altitude
904.916 km
Perigee altitude
846.398 km
Semi-major axis
7,253.794 km
Eccentricity
0.00403
Inclination
82.9443°
RAAN
338.83°
Arg. of periapsis
182.521°
True anomaly
195.99119°
Mean anomaly
196.1189°
Eccentric anomaly
196.05498°
Mean motion
3.51314 °/min
Orbital period
102.47 mins
BSTAR
0.00058713
Loading maneuver chart data...
Computing Atmospheric mass density...

Documentation

Showing up to 5 results
|